TimeCDT,TemperatureF,Dew PointF,Humidity,Sea Level PressureIn,VisibilityMPH,Wind Direction,Wind SpeedMPH,Gust SpeedMPH,PrecipitationIn,Events,Conditions,WindDirDegrees,DateUTC
12:20 AM,80.6,78.8,94,29.91,10.0,SE,11.5,-,N/A,,Mostly Cloudy,140,2013-09-30 05:20:00
12:52 AM,80.1,78.1,94,29.91,10.0,SE,9.2,-,N/A,,Overcast,140,2013-09-30 05:52:00
1:35 AM,80.6,78.8,94,29.90,10.0,SSE,6.9,-,N/A,,Overcast,160,2013-09-30 06:35:00
1:43 AM,80.6,78.8,94,29.89,10.0,SSE,6.9,-,N/A,,Overcast,160,2013-09-30 06:43:00
1:52 AM,80.1,78.1,94,29.90,10.0,South,6.9,-,0.00,Rain,Light Rain,170,2013-09-30 06:52:00
2:52 AM,79.0,77.0,94,29.89,10.0,Calm,Calm,-,0.00,,Overcast,0,2013-09-30 07:52:00
3:52 AM,78.1,75.0,90,29.87,10.0,SW,4.6,-,N/A,,Overcast,220,2013-09-30 08:52:00
4:52 AM,78.1,73.0,84,29.87,10.0,SW,5.8,-,N/A,,Overcast,230,2013-09-30 09:52:00
5:52 AM,78.1,75.0,90,29.88,10.0,SW,6.9,-,N/A,,Mostly Cloudy,220,2013-09-30 10:52:00
6:52 AM,78.1,73.9,87,29.88,10.0,SSW,11.5,-,N/A,,Overcast,200,2013-09-30 11:52:00
7:52 AM,78.1,73.0,84,29.88,10.0,SW,5.8,-,N/A,,Overcast,220,2013-09-30 12:52:00
8:52 AM,79.0,73.0,82,29.90,10.0,SSW,5.8,-,N/A,,Overcast,210,2013-09-30 13:52:00
9:52 AM,80.1,73.0,79,29.90,10.0,SSW,9.2,-,N/A,,Mostly Cloudy,210,2013-09-30 14:52:00
10:52 AM,82.0,73.9,76,29.90,10.0,WSW,5.8,-,N/A,,Mostly Cloudy,240,2013-09-30 15:52:00
11:52 AM,82.0,75.0,79,29.90,10.0,SW,6.9,-,N/A,,Overcast,230,2013-09-30 16:52:00
12:52 PM,84.9,73.9,69,29.89,10.0,SSW,8.1,-,N/A,,Partly Cloudy,200,2013-09-30 17:52:00
1:52 PM,82.9,73.9,74,29.88,10.0,South,11.5,-,N/A,,Scattered Clouds,170,2013-09-30 18:52:00
2:52 PM,82.0,75.0,79,29.85,10.0,South,9.2,-,N/A,,Scattered Clouds,170,2013-09-30 19:52:00
3:52 PM,82.9,75.9,79,29.84,10.0,SSE,9.2,-,N/A,,Mostly Cloudy,160,2013-09-30 20:52:00
4:52 PM,84.0,77.0,79,29.84,10.0,South,10.4,-,N/A,,Partly Cloudy,180,2013-09-30 21:52:00
5:52 PM,82.9,77.0,82,29.85,10.0,SSE,11.5,-,N/A,,Scattered Clouds,160,2013-09-30 22:52:00
6:52 PM,81.0,75.9,85,29.85,10.0,SE,8.1,-,N/A,,Scattered Clouds,140,2013-09-30 23:52:00
7:52 PM,80.1,75.9,87,29.85,10.0,South,6.9,-,N/A,,Clear,170,2013-10-01 00:52:00
8:52 PM,80.1,75.9,87,29.86,10.0,South,10.4,-,N/A,,Clear,180,2013-10-01 01:52:00
9:52 PM,80.1,75.9,87,29.88,10.0,South,5.8,-,N/A,,Clear,180,2013-10-01 02:52:00
10:52 PM,80.1,75.9,87,29.90,10.0,South,6.9,-,N/A,,Partly Cloudy,170,2013-10-01 03:52:00
11:52 PM,79.0,75.9,90,29.89,10.0,South,6.9,-,N/A,,Scattered Clouds,170,2013-10-01 04:52:00